User: anonymous   Login
Location: Durham
(54.7770°N, 1.5720°W)
Time: 08:45:46
(UTC+00:00)
Language:

ISS - Orbit

View from above orbital plane
View from above orbital plane
View from above satellite
View from above satellite

Ground track
Ground track

The orbit data is extracted from the following two-line orbital elements,

1 25544U 98067A   16042.25886579  .00015328  00000-0  23411-3 0  9996
2 25544  51.6453 331.0084 0006803 105.0139  55.7215 15.54605677985239
Epoch (UTC): 11 February 2016 06:12:46
Eccentricity: 0.0006803
inclination: 51.6453°
perigee height: 398 km
apogee height: 408 km
right ascension of ascending node: 331.0084°
argument of perigee: 105.0139°
revolutions per day: 15.54605677
mean anomaly at epoch: 55.7215°
orbit number at epoch: 98523

The dashed part of the orbit path shows where the satellite is in the earth's shadow,  

DLR